Location: downtown San Diego
(32.7310°N, 117.1990°W)
Time: 17:50:16
(UTC-07:00)

Cosmos 304 Rocket - Pass Details

Date: 19 May 2017
Orbit: 679 x 689 km, 74.0° (Epoch: 26 May)

Event Time Altitude Azimuth Distance (km) Brightness Sun altitude
Rises 20:12:51 0° 199° (SSW) 3,035 7.0 -6.3°
Reaches altitude 10° 20:15:09 10° 201° (SSW) 2,124 6.2 -6.7°
Maximum altitude 20:19:56 76° 286° (WNW) 711 4.0 -7.6°
Drops below altitude 10° 20:24:46 10° 13° (NNE) 2,142 6.6 -8.5°
Sets 20:27:05 0° 15° (NNE) 3,062 7.3 -8.9°
